EHI
1 7 16 24 37 51 57 58 59 58 54 51 49 42 29 18 10 4 1 0 0 0 0 0 0 0 0 0 0 0 0 0 0 0 0 0 0 0 0 0 0 0 0
1 6 15 23 33 46 53 55 55 53 50 47 42 34 23 15 8 3 0 0 0 0 0 0 0 0 0 0 0 0 0 0 0 0 0 0 0 0 0 0 0 0 0
1 6 16 24 31 39 46 49 47 43 40 38 32 23 15 10 6 2 0 0 0 0 0 0 0 0 0 0 0 0 0 0 0 0 0 0 0 0 0 0 0 0 0
3 7 19 31 33 33 37 39 36 32 29 29 25 17 10 6 4 1 0 0 0 0 0 0 0 0 0 0 0 0 0 0 0 0 0 0 0 0 0 0 0 0 0
4 10 26 39 38 32 31 29 26 23 22 23 21 14 7 4 2 1 0 0 0 0 0 0 0 0 0 0 0 0 0 0 0 0 0 0 0 0 0 0 0 0 0
4 11 27 42 42 33 27 24 20 17 18 19 17 12 6 2 1 0 0 0 0 1 0 0 0 0 0 0 0 0 0 0 0 0 0 0 0 0 0 0 0 0 0
3 9 22 38 41 32 25 21 19 16 14 14 12 8 4 1 0 0 0 0 0 0 0 0 0 0 0 0 0 0 0 0 0 0 0 0 0 0 0 0 0 0 0
2 6 16 27 33 29 22 19 18 14 12 11 8 4 3 2 1 0 0 0 0 0 0 0 0 0 0 0 0 0 0 0 0 0 0 0 0 0 0 0 0 0 0
2 4 9 14 19 20 18 16 15 12 9 9 7 4 2 2 1 0 0 0 0 0 0 0 0 0 0 0 0 0 0 0 0 0 0 0 0 0 0 0 0 0 0
3 4 6 7 9 11 12 12 12 11 8 6 5 3 1 1 0 0 0 0 0 0 0 0 0 0 0 0 0 0 0 0 0 0 0 0 0 0 0 0 0 0 0
3 4 5 5 5 6 9 9 10 10 6 3 2 1 0 0 0 0 0 0 0 0 0 0 0 0 0 0 0 0 0 0 0 0 0 0 0 0 0 0 0 0 0
1 2 3 3 3 4 6 7 10 9 4 1 0 0 0 0 0 0 0 0 0 0 0 0 0 0 0 0 0 0 0 0 0 0 0 0 0 0 0 0 0 0 0
0 0 1 1 1 1 3 5 8 7 2 0 0 0 0 0 0 0 0 0 0 0 0 0 0 0 0 0 0 0 0 0 0 0 0 0 0 0 0 0 0 0 0
0 0 0 0 0 0 1 3 5 4 1 0 0 0 0 0 0 0 0 0 0 0 0 0 0 0 0 0 0 0 0 0 0 0 0 0 0 0 0 0 0 0 0
0 0 0 0 1 0 0 1 2 2 1 0 0 0 0 0 0 0 0 0 0 0 0 0 0 0 0 0 0 0 0 0 0 0 0 0 0 0 0 0 0 0 0
0 0 0 0 0 0 0 0 0 0 0 0 0 0 0 0 0 0 0 0 0 0 0 0 0 0 0 0 0 0 0 0 0 0 0 0 0 0 0 0 0 0 0
0 0 0 0 0 0 0 0 0 0 0 0 0 0 0 0 0 0 0 0 0 0 0 0 0 0 0 0 0 0 0 0 0 0 0 0 0 0 0 0 0 0 0
0 0 0 0 0 0 0 0 0 0 0 0 0 0 0 0 0 0 0 0 0 0 0 0 0 0 0 0 0 0 0 0 0 0 0 0 0 0 0 0 0 0 0
0 0 0 0 0 0 0 0 0 0 0 0 0 0 0 0 0 0 0 0 0 0 0 0 0 0 0 0 0 0 0 0 0 0 0 0 0 0 0 0 0 0 0
0 0 0 0 0 0 0 0 0 0 0 0 0 0 0 0 0 0 0 0 0 0 0 0 0 0 0 0 0 0 0 0 0 0 0 0 0 0 0 0 0 0 0
0 0 0 0 0 0 0 0 0 0 0 0 0 0 0 0 0 0 0 0 0 0 0 0 0 0 0 0 0 0 0 0 0 0 0 0 0 0 0 0 0 0 0
0 0 0 0 0 0 0 0 0 0 0 0 0 0 0 0 0 0 0 0 0 0 0 0 0 0 0 0 0 0 0 0 0 0 0 0 0 0 0 0 0 0 0
0 0 0 0 0 0 0 0 0 0 0 0 0 0 0 0 0 0 0 0 0 0 0 0 0 0 0 0 0 0 0 0 0 0 0 0 0 0 0 0 0 0 0
0 0 0 0 0 0 0 0 0 0 0 0 0 0 0 0 0 0 0 0 0 0 0 0 0 0 0 0 0 0 0 0 0 0 0 0 0 0 0 0 0 0 0
0 0 0 0 0 0 0 0 0 0 0 0 0 0 0 0 0 0 0 0 0 0 0 0 0 0 0 0 0 0 0 0 0 0 0 0 0 0 0 0 0 0 0
0 0 0 0 0 0 0 0 0 0 0 0 0 0 0 0 0 0 0 0 0 0 0 0 0 0 0 0 0 0 0 0 0 0 0 0 0 0 0 0 0 0 0
Wind_Speed
8 11 18 18 18 18 17 17 17 16 16 16 16 16 17 17 17 17 17 17 16 16 16 16 16 17 17 17 17 16 16 16 16 15 15 14 15 15 14 14 12 8 14
12 14 17 17 18 17 17 17 16 15 15 16 16 16 17 17 18 18 17 17 16 16 16 16 16 16 16 16 16 16 16 16 15 14 13 11 12 14 14 13 12 9 14
14 14 15 16 16 16 16 16 16 16 16 16 17 17 17 18 18 18 17 17 16 16 16 16 16 16 15 15 15 14 14 13 12 12 11 6 8 13 13 13 13 13 13
15 13 13 15 16 15 15 15 15 16 16 16 17 17 18 18 18 18 17 17 17 16 16 16 15 15 14 13 13 12 11 10 10 9 5 4 5 11 13 13 13 13 13
12 11 13 16 16 15 14 14 15 15 16 16 16 17 18 18 18 18 18 17 16 16 16 16 15 14 13 12 11 10 10 10 11 8 5 4 4 10 12 12 12 12 12
11 10 13 17 16 15 14 14 15 15 16 16 16 17 18 18 19 19 18 16 16 16 16 15 14 13 11 10 10 9 10 12 9 5 4 4 3 10 11 11 11 11 11
10 9 12 17 17 16 15 14 14 15 15 16 16 18 19 19 19 19 18 17 17 16 16 15 14 12 11 10 9 9 9 10 6 5 4 3 4 10 10 10 10 10 10
10 9 11 17 16 15 15 14 14 14 15 16 16 18 19 19 19 19 19 18 17 16 16 15 13 12 10 9 8 8 8 8 7 5 4 3 7 9 9 9 8 8 8
6 8 8 10 12 13 13 12 12 13 14 15 16 16 17 17 18 19 18 18 17 16 15 14 13 12 10 8 7 6 6 6 4 3 4 3 6 8 8 7 7 7 7
3 5 7 7 7 8 8 11 11 12 13 14 15 15 15 15 16 17 15 15 16 15 15 14 13 11 9 7 6 5 5 5 3 3 3 4 7 7 6 6 5 5 5
2 3 5 6 6 6 6 9 9 10 12 13 12 14 13 9 10 11 12 13 14 14 14 14 13 11 8 6 5 4 3 2 3 2 3 6 8 7 6 5 4 3 3
4 4 5 6 6 6 6 5 5 6 7 7 8 10 8 7 7 9 12 13 13 13 12 13 12 10 6 2 2 2 1 2 2 3 4 9 9 8 6 5 4 3 2
4 4 5 6 6 6 4 4 4 4 5 6 9 9 7 6 6 6 5 7 8 9 6 8 7 4 3 3 2 2 3 2 2 3 4 10 10 8 7 6 5 4 3
3 4 4 5 6 6 5 5 5 5 5 6 8 10 8 6 6 6 4 5 5 4 5 4 3 4 4 4 4 4 3 3 3 3 4 10 9 8 7 6 6 5 5
4 4 4 5 6 6 5 5 5 5 6 7 8 9 10 8 8 7 5 5 5 4 5 5 4 5 5 5 4 5 4 4 5 4 3 9 9 8 7 7 6 6 5
5 5 5 6 7 7 6 6 5 5 5 6 7 9 11 8 8 8 7 6 6 5 5 5 6 5 4 4 4 5 5 4 4 5 4 5 8 8 7 7 6 5 4
6 5 6 6 7 7 7 7 6 5 5 6 7 9 10 10 10 9 8 7 7 6 6 4 4 3 3 4 4 4 4 4 4 4 4 3 3 6 6 7 6 5 4
6 6 7 6 7 8 7 6 5 6 6 6 7 7 10 11 11 9 8 8 7 6 5 5 4 4 3 3 3 3 3 3 3 4 3 3 3 2 4 5 6 5 4
6 6 6 6 7 7 7 6 6 6 7 7 7 7 9 11 12 9 8 7 7 6 5 6 4 4 4 3 3 2 2 2 3 3 3 4 4 3 2 3 4 4 4
5 5 5 5 5 5 4 4 4 5 5 6 6 8 10 10 11 9 7 8 8 6 5 5 4 3 3 4 3 2 1 1 2 2 3 3 3 4 3 3 2 2 3
4 5 6 6 5 4 3 4 4 5 5 6 6 7 9 9 10 9 7 7 7 7 7 7 4 4 3 3 3 1 1 0 1 1 2 3 3 3 4 3 3 2 2
4 5 6 5 5 5 4 4 3 3 4 4 5 6 7 8 8 8 8 7 7 6 6 7 5 4 3 4 4 3 1 1 1 1 2 3 3 3 3 4 4 3 2
3 4 3 3 3 5 4 3 3 3 3 4 5 5 6 7 7 7 8 7 6 6 6 6 6 6 4 3 3 5 4 4 1 0 1 2 3 3 3 3 4 4 4
1 1 2 2 2 2 4 4 5 4 4 4 5 5 5 6 6 6 7 7 6 5 6 6 5 4 5 4 3 2 2 4 4 2 1 1 2 3 3 3 4 4 4
3 2 2 1 0 1 2 4 5 3 3 3 4 6 5 4 5 6 6 6 6 5 6 6 5 5 4 5 4 3 2 1 2 3 3 2 1 2 3 3 3 3 4
8 6 4 3 2 1 0 1 3 3 3 5 5 6 5 3 3 5 5 5 5 5 6 6 6 7 6 5 4 4 4 4 4 4 4 3 3 2 2 2 3 3 3
Wind_Direction
168 166 173 169 165 160 157 154 153 151 149 147 144 141 138 135 133 133 133 133 132 129 126 121 116 112 110 108 105 102 98 93 88 84 78 77 78 79 79 74 70 63 71
156 162 169 169 166 163 159 158 156 155 154 154 152 149 146 143 140 139 138 136 135 132 128 123 119 115 113 111 109 107 102 97 93 90 82 75 78 79 79 78 75 73 72
151 160 165 168 167 164 161 160 159 160 161 160 158 155 152 148 146 145 143 141 138 135 130 126 123 119 118 116 114 111 107 101 96 93 85 74 80 83 81 79 76 75 73
153 158 163 167 167 165 164 163 164 166 166 165 163 160 157 153 150 149 147 144 140 137 132 127 125 124 124 122 118 113 108 102 103 102 82 69 77 85 83 80 77 76 75
153 158 162 165 167 167 167 167 168 170 171 169 166 163 161 158 154 152 149 145 141 136 132 130 129 130 129 125 118 108 101 101 106 101 91 78 74 87 84 81 79 76 75
155 159 163 164 167 168 169 170 173 174 175 173 169 165 163 162 158 154 149 144 140 137 135 134 134 134 132 128 117 106 103 109 109 106 100 92 87 93 89 85 83 79 77
157 163 166 167 168 170 172 173 176 177 178 176 172 168 165 163 159 153 149 145 143 142 141 140 139 139 137 130 117 105 107 113 117 116 114 108 106 101 95 90 86 82 79
160 163 169 170 170 172 173 175 178 179 179 176 174 170 167 163 159 154 151 149 149 148 146 145 145 145 143 136 121 107 106 116 121 126 128 127 120 109 103 98 92 87 83
158 160 167 171 170 172 172 174 179 181 179 176 174 170 165 161 158 156 155 154 153 152 151 150 150 151 152 146 133 114 107 111 123 138 146 148 135 122 114 108 101 96 91
156 162 164 164 168 171 173 174 177 178 176 173 170 165 159 158 156 156 156 156 156 155 154 154 155 157 158 157 150 133 115 112 138 156 155 166 152 138 130 125 119 111 104
164 177 170 164 164 167 172 176 173 172 173 170 165 157 153 154 152 154 156 158 158 157 159 160 161 162 162 169 172 159 125 133 154 168 176 176 164 154 149 146 142 134 133
196 194 180 166 168 170 178 172 168 169 168 165 160 157 153 150 152 154 156 157 158 158 161 165 165 165 159 173 199 185 150 161 170 182 195 186 174 167 164 166 172 176 173
206 197 194 176 170 171 171 168 168 162 164 164 162 159 153 148 149 149 155 156 155 156 156 164 162 164 173 187 203 206 198 192 193 194 201 193 184 180 178 183 193 203 211
214 201 198 183 172 173 173 173 172 169 172 172 170 164 159 157 157 160 164 162 161 160 160 160 165 180 193 206 213 221 217 199 196 191 201 197 190 189 192 199 209 218 226
220 219 189 194 189 180 176 182 180 179 180 177 173 172 168 165 167 168 171 171 169 167 170 172 179 188 202 214 220 221 222 208 192 187 196 200 197 199 203 208 218 228 227
221 216 201 196 194 189 183 188 185 182 179 182 181 178 174 171 170 173 175 178 179 180 181 181 185 191 203 206 217 217 214 196 186 182 187 200 207 207 212 217 220 221 222
217 208 200 193 195 191 191 195 191 180 181 185 186 182 180 175 173 174 177 182 185 182 182 179 187 190 201 206 212 208 194 185 176 180 182 188 202 214 219 220 212 209 199
205 201 201 195 192 195 192 194 189 187 186 188 184 185 185 180 175 174 178 185 183 179 180 181 181 183 201 196 190 188 180 171 169 174 174 178 183 193 215 215 207 195 183
202 196 196 192 187 194 191 190 188 185 188 188 184 185 187 182 179 177 181 184 178 179 182 185 178 173 182 182 174 170 175 172 174 165 166 174 178 176 175 185 182 169 170
198 188 189 186 189 182 176 181 183 186 192 189 188 189 186 183 181 179 180 181 177 177 182 183 173 171 169 165 151 141 172 193 179 169 167 163 164 165 159 154 149 149 150
192 189 186 187 186 169 170 182 180 191 195 191 189 188 186 183 181 178 179 178 179 183 185 178 163 166 166 149 123 116 358 307 204 186 166 157 157 157 149 148 141 134 129
188 190 182 187 188 181 185 187 181 180 188 190 187 187 188 183 181 181 177 181 181 178 179 179 164 161 168 164 145 137 190 293 277 199 173 169 165 152 148 145 138 133 124
177 183 172 178 189 192 185 176 173 177 168 187 185 185 192 187 181 180 178 179 178 178 186 190 180 172 175 185 172 158 168 204 208 289 199 173 169 159 154 145 144 142 135
134 135 133 146 195 205 182 179 176 190 184 189 178 175 181 186 183 181 179 180 179 180 185 191 188 180 168 182 188 186 169 154 158 178 264 208 183 171 171 162 150 145 141
48 59 86 108 132 226 195 179 174 180 177 161 159 162 172 178 182 180 182 180 181 185 188 186 183 184 182 184 179 171 164 150 144 157 193 205 211 204 187 173 160 154 149
44 41 49 72 57 35 37 154 160 167 156 151 163 170 174 175 182 181 183 184 184 187 188 189 193 193 193 190 186 182 174 172 181 171 181 192 202 209 192 170 171 166 156